Weather reports worldwide

Advertisment
Stockholm/observat., Sweden (2484): temperature & dewpoint: 23.05.2020 00:00:00 - 29.05.2020 00:00:00 (CEST)Stockholm/observat., Sweden (2484): reduced air pressure: 23.05.2020 00:00:00 - 29.05.2020 00:00:00 (CEST)
Date & Time tt [°C] td [°C] ppp [hPa]
29.05.2020 00:00:00 9,3 5,7 1030,1
28.05.2020 23:00:00 9,9 5,5 1030,0
28.05.2020 22:00:00 10,5 4,6 1030,0
28.05.2020 21:00:00 12,0 4,7 1029,7
28.05.2020 20:00:00 14,8 1,0 1029,4
28.05.2020 19:00:00 15,4 0,8 1029,3
28.05.2020 18:00:00 15,2 0,6 1029,4
28.05.2020 17:00:00 16,0 0,7 1029,3
28.05.2020 16:00:00 15,8 1,9 1029,4
28.05.2020 15:00:00 16,1 1,0 1029,4
28.05.2020 14:00:00 16,1 2,8 1029,3
28.05.2020 13:00:00 15,7 1,0 1029,5
28.05.2020 12:00:00 15,0 2,5 1029,5
28.05.2020 11:00:00 14,1 3,0 1029,5
28.05.2020 10:00:00 13,3 3,9 1029,6
28.05.2020 09:00:00 12,2 3,4 1029,4
28.05.2020 08:00:00 11,1 4,1 1029,4
28.05.2020 07:00:00 10,1 4,2 1029,2
28.05.2020 06:00:00 9,1 4,1 1028,7
28.05.2020 05:00:00 8,4 4,3 1028,2
28.05.2020 04:00:00 8,5 5,1 1027,8
28.05.2020 03:00:00 9,0 7,0 1027,2
28.05.2020 02:00:00 9,4 7,3 1027,0
28.05.2020 01:00:00 9,4 7,3 1026,8
28.05.2020 00:00:00 9,5 7,1 1026,6
27.05.2020 23:00:00 9,7 7,4 1026,4
27.05.2020 22:00:00 10,0 7,6 1026,1
27.05.2020 21:00:00 10,7 7,9 1025,7
27.05.2020 20:00:00 11,1 8,7 1025,2
27.05.2020 19:00:00 10,9 9,2 1024,8
27.05.2020 18:00:00 11,9 10,3 1024,4
27.05.2020 17:00:00 12,1 9,9 1024,2
27.05.2020 16:00:00 18,4 8,6 1022,7
27.05.2020 15:00:00 20,3 6,6 1022,9
27.05.2020 14:00:00 20,5 6,4 1023,4
27.05.2020 13:00:00 18,8 7,6 1023,8
27.05.2020 12:00:00 18,6 8,0 1024,3
27.05.2020 11:00:00 17,0 8,4 1024,6
27.05.2020 10:00:00 16,0 8,2 1025,1
27.05.2020 09:00:00 14,1 7,6 1025,4
27.05.2020 08:00:00 13,1 7,3 1025,8
27.05.2020 07:00:00 12,7 6,7 1026,4
27.05.2020 06:00:00 12,4 6,2 1026,6
27.05.2020 05:00:00 12,1 6,1 1027,0
27.05.2020 04:00:00 11,6 6,1 1027,7
27.05.2020 03:00:00 12,5 6,1 1028,2
27.05.2020 02:00:00 13,4 6,0 1028,4
27.05.2020 01:00:00 14,1 6,5 1028,6
27.05.2020 00:00:00 14,2 6,3 1028,9
26.05.2020 23:00:00 14,7 5,9 1029,4
26.05.2020 22:00:00 15,3 6,3 1029,7
26.05.2020 21:00:00 16,2 5,5 1029,8
26.05.2020 20:00:00 18,0 5,2 1029,9
26.05.2020 19:00:00 19,2 5,3 1029,9
26.05.2020 18:00:00 20,7 6,6 1030,3
26.05.2020 17:00:00 20,0 6,5 1030,5
26.05.2020 16:00:00 20,5 5,7 1030,9
26.05.2020 15:00:00 21,4 5,7 1031,2
26.05.2020 14:00:00 22,5 3,1 1031,7
26.05.2020 13:00:00 22,2 3,2 1032,2
26.05.2020 12:00:00 20,3 4,3 1032,6
26.05.2020 11:00:00 19,6 6,0 1033,0
26.05.2020 10:00:00 19,2 5,3 1033,3
26.05.2020 09:00:00 17,1 4,7 1033,3
26.05.2020 08:00:00 14,5 5,3 1033,0
26.05.2020 07:00:00 12,0 7,1 1033,0
26.05.2020 06:00:00 10,6 6,5 1032,9
26.05.2020 05:00:00 9,4 6,0 1032,6
26.05.2020 04:00:00 9,1 5,8 1032,2
26.05.2020 03:00:00 9,6 6,1 1032,2
26.05.2020 02:00:00 10,0 6,3 1032,2
26.05.2020 01:00:00 10,9 6,7 1032,0
26.05.2020 00:00:00 11,9 7,0 1031,8
25.05.2020 23:00:00 12,5 7,5 1031,3
25.05.2020 22:00:00 13,3 7,7 1030,8
25.05.2020 21:00:00 14,7 6,3 1030,4
25.05.2020 20:00:00 15,4 6,7 1029,7
25.05.2020 19:00:00 15,3 6,6 1029,2
25.05.2020 18:00:00 16,7 7,1 1028,8
25.05.2020 17:00:00 16,3 6,3 1028,5
25.05.2020 16:00:00 - - -
25.05.2020 15:00:00 16,1 6,5 1027,6
25.05.2020 14:00:00 16,0 4,7 1027,1
25.05.2020 13:00:00 17,0 4,3 1026,5
25.05.2020 12:00:00 16,9 5,2 1026,1
25.05.2020 11:00:00 15,9 6,2 1025,5
25.05.2020 10:00:00 14,1 7,4 1024,9
25.05.2020 09:00:00 11,1 7,4 1024,3
25.05.2020 08:00:00 10,0 7,1 1023,3
25.05.2020 07:00:00 8,5 7,1 1022,5
25.05.2020 06:00:00 7,3 6,7 1021,8
25.05.2020 05:00:00 6,8 6,4 1021,0
25.05.2020 04:00:00 7,2 6,9 1019,8
25.05.2020 03:00:00 7,5 6,9 1018,8
25.05.2020 02:00:00 8,0 7,2 1018,1
25.05.2020 01:00:00 8,5 7,3 1017,6
25.05.2020 00:00:00 9,3 7,2 1017,1
24.05.2020 23:00:00 9,7 6,9 1016,6
24.05.2020 22:00:00 10,5 7,0 1016,2
24.05.2020 21:00:00 11,1 7,0 1015,5
24.05.2020 20:00:00 12,4 7,1 1015,0
24.05.2020 19:00:00 13,5 5,9 1014,4
24.05.2020 18:00:00 15,1 5,3 1014,2
24.05.2020 17:00:00 15,1 3,3 1013,9
24.05.2020 16:00:00 15,4 3,2 1013,6
24.05.2020 15:00:00 16,2 3,9 1013,3
24.05.2020 14:00:00 15,3 5,2 1013,3
24.05.2020 13:00:00 15,4 4,4 1013,4
24.05.2020 12:00:00 16,2 3,9 1013,2
24.05.2020 11:00:00 14,8 4,6 1013,3
24.05.2020 10:00:00 13,4 5,5 1013,5
24.05.2020 09:00:00 13,8 6,6 1013,5
24.05.2020 08:00:00 12,1 6,6 1013,6
24.05.2020 07:00:00 10,7 6,6 1013,5
24.05.2020 06:00:00 9,1 7,1 1013,5
24.05.2020 05:00:00 8,3 7,0 1013,3
24.05.2020 04:00:00 8,5 7,3 1013,3
24.05.2020 03:00:00 8,7 7,3 1013,3
24.05.2020 02:00:00 8,6 7,5 1013,6
24.05.2020 01:00:00 8,8 7,4 1013,5
24.05.2020 00:00:00 8,5 7,4 1013,8
23.05.2020 23:00:00 8,5 7,4 1013,7
23.05.2020 22:00:00 8,5 7,0 1013,7
23.05.2020 21:00:00 8,2 7,1 1013,8
23.05.2020 20:00:00 8,4 6,0 1013,8
23.05.2020 19:00:00 8,5 5,1 1014,0
23.05.2020 18:00:00 8,4 5,2 1015,0
23.05.2020 17:00:00 8,1 5,0 1015,7
23.05.2020 16:00:00 8,3 4,1 1016,7
23.05.2020 15:00:00 9,9 2,5 1017,1
23.05.2020 14:00:00 10,7 1,5 1017,4
23.05.2020 13:00:00 11,1 0,8 1017,6
23.05.2020 12:00:00 11,2 0,6 1018,2
23.05.2020 11:00:00 11,3 1,6 1018,4
23.05.2020 10:00:00 11,0 0,1 1018,8
23.05.2020 09:00:00 10,9 -0,6 1019,2
23.05.2020 08:00:00 10,9 0,6 1019,1
23.05.2020 07:00:00 10,8 2,4 1019,4
23.05.2020 06:00:00 9,9 2,7 1019,8
23.05.2020 05:00:00 9,1 2,5 1020,3
23.05.2020 04:00:00 8,7 2,7 1020,4
23.05.2020 03:00:00 8,7 2,3 1020,8
23.05.2020 02:00:00 9,2 1,4 1021,2
23.05.2020 01:00:00 9,1 2,2 1021,5
23.05.2020 00:00:00 8,5 2,9 1021,9

tt = temperature
td = dewpoint
ppp = reduced air pressure

Next stations